TimeEDT,TemperatureF,Dew PointF,Humidity,Sea Level PressureIn,VisibilityMPH,Wind Direction,Wind SpeedMPH,Gust SpeedMPH,PrecipitationIn,Events,Conditions,WindDirDegrees,DateUTC
12:11 AM,68.0,68.0,100,29.66,7.0,Calm,Calm,-,N/A,,Scattered Clouds,0,2013-06-28 04:11:00
12:31 AM,66.2,66.2,100,29.66,5.0,Calm,Calm,-,N/A,,Scattered Clouds,0,2013-06-28 04:31:00
12:51 AM,66.2,66.2,100,29.66,7.0,Calm,Calm,-,N/A,,Mostly Cloudy,0,2013-06-28 04:51:00
1:12 AM,68.0,68.0,100,29.65,7.0,ENE,5.8,-,N/A,,Mostly Cloudy,70,2013-06-28 05:12:00
1:32 AM,68.0,68.0,100,29.64,10.0,East,5.8,-,N/A,,Mostly Cloudy,80,2013-06-28 05:32:00
1:52 AM,68.0,68.0,100,29.64,10.0,Calm,Calm,-,N/A,,Overcast,0,2013-06-28 05:52:00
2:32 AM,68.0,68.0,100,29.64,7.0,Calm,Calm,-,N/A,,Light Drizzle,0,2013-06-28 06:32:00
2:52 AM,68.0,68.0,100,29.63,7.0,Calm,Calm,-,N/A,,Light Drizzle,0,2013-06-28 06:52:00
3:12 AM,66.2,66.2,100,29.62,5.0,Calm,Calm,-,N/A,Rain,Light Rain,0,2013-06-28 07:12:00
3:32 AM,66.2,66.2,100,29.62,5.0,Calm,Calm,-,N/A,,Light Drizzle,0,2013-06-28 07:32:00
3:53 AM,66.2,66.2,100,29.62,7.0,NW,3.5,-,N/A,,Overcast,320,2013-06-28 07:53:00
4:13 AM,68.0,68.0,100,29.62,7.0,West,4.6,-,N/A,,Overcast,270,2013-06-28 08:13:00
4:33 AM,68.0,68.0,100,29.62,7.0,West,4.6,-,N/A,,Overcast,260,2013-06-28 08:33:00
4:53 AM,66.2,66.2,100,29.62,7.0,WSW,3.5,-,N/A,Rain,Light Rain,250,2013-06-28 08:53:00
5:13 AM,66.2,66.2,100,29.61,7.0,WSW,4.6,-,N/A,Rain,Light Rain,250,2013-06-28 09:13:00
5:33 AM,66.2,66.2,100,29.61,7.0,West,4.6,-,N/A,Rain,Rain,260,2013-06-28 09:33:00
5:53 AM,66.2,66.2,100,29.61,10.0,Calm,Calm,-,N/A,Rain,Light Rain,0,2013-06-28 09:53:00
6:13 AM,66.2,66.2,100,29.61,7.0,Calm,Calm,-,N/A,,Overcast,0,2013-06-28 10:13:00
6:34 AM,66.2,66.2,100,29.61,7.0,WSW,5.8,-,N/A,,Scattered Clouds,240,2013-06-28 10:34:00
6:54 AM,66.2,66.2,100,29.61,7.0,WSW,4.6,-,N/A,,Scattered Clouds,240,2013-06-28 10:54:00
7:14 AM,66.2,66.2,100,29.61,10.0,WSW,4.6,-,N/A,,Scattered Clouds,250,2013-06-28 11:14:00
7:34 AM,66.2,66.2,100,29.60,10.0,West,5.8,-,N/A,,Mostly Cloudy,260,2013-06-28 11:34:00
7:54 AM,66.2,66.2,100,29.60,10.0,West,4.6,-,N/A,,Scattered Clouds,260,2013-06-28 11:54:00
8:14 AM,68.0,68.0,100,29.59,10.0,West,6.9,-,N/A,,Clear,270,2013-06-28 12:14:00
8:34 AM,69.8,68.0,94,29.60,10.0,West,9.2,-,N/A,,Scattered Clouds,280,2013-06-28 12:34:00
8:54 AM,69.8,68.0,94,29.59,10.0,West,9.2,-,N/A,,Scattered Clouds,280,2013-06-28 12:54:00
9:14 AM,69.8,68.0,94,29.59,10.0,West,8.1,-,N/A,,Mostly Cloudy,280,2013-06-28 13:14:00
9:34 AM,69.8,68.0,94,29.58,10.0,West,4.6,-,N/A,,Mostly Cloudy,270,2013-06-28 13:34:00
9:54 AM,71.6,68.0,88,29.58,10.0,West,6.9,-,N/A,,Mostly Cloudy,280,2013-06-28 13:54:00
10:14 AM,73.4,68.0,83,29.58,10.0,West,6.9,-,N/A,,Scattered Clouds,280,2013-06-28 14:14:00
10:35 AM,71.6,68.0,88,29.58,10.0,West,8.1,-,N/A,,Scattered Clouds,280,2013-06-28 14:35:00
10:55 AM,71.6,66.2,83,29.58,10.0,WNW,8.1,17.3,N/A,,Scattered Clouds,300,2013-06-28 14:55:00
11:15 AM,73.4,66.2,78,29.57,10.0,West,6.9,-,N/A,,Mostly Cloudy,280,2013-06-28 15:15:00
11:30 AM,73.4,64.4,73,29.57,10.0,West,6.9,-,N/A,,Overcast,260,2013-06-28 15:30:00
11:50 AM,73.4,66.2,78,29.57,10.0,West,6.9,-,N/A,,Mostly Cloudy,280,2013-06-28 15:50:00
12:10 PM,73.4,64.4,73,29.57,10.0,NW,8.1,-,N/A,,Overcast,320,2013-06-28 16:10:00
12:30 PM,71.6,64.4,78,29.57,10.0,NNW,9.2,-,N/A,,Overcast,340,2013-06-28 16:30:00
12:50 PM,71.6,68.0,88,29.57,10.0,NNE,4.6,-,N/A,Rain,Light Rain,30,2013-06-28 16:50:00
1:11 PM,71.6,68.0,88,29.57,10.0,Calm,Calm,-,N/A,Rain,Light Rain,0,2013-06-28 17:11:00
1:31 PM,71.6,68.0,88,29.57,10.0,Calm,Calm,-,N/A,,Mostly Cloudy,0,2013-06-28 17:31:00
1:51 PM,71.6,68.0,88,29.56,10.0,Calm,Calm,-,N/A,Rain,Light Rain,0,2013-06-28 17:51:00
2:11 PM,71.6,66.2,83,29.57,10.0,NNW,5.8,-,N/A,,Scattered Clouds,340,2013-06-28 18:11:00
2:31 PM,71.6,68.0,88,29.56,10.0,Calm,Calm,-,N/A,,Mostly Cloudy,0,2013-06-28 18:31:00
2:51 PM,71.6,68.0,88,29.57,10.0,North,3.5,-,N/A,Rain,Light Rain,360,2013-06-28 18:51:00
3:11 PM,69.8,68.0,94,29.56,10.0,WNW,11.5,-,N/A,Rain,Light Rain,300,2013-06-28 19:11:00
3:32 PM,68.0,64.4,88,29.57,10.0,NW,9.2,16.1,N/A,,Mostly Cloudy,320,2013-06-28 19:32:00
3:52 PM,66.2,64.4,94,29.57,7.0,NW,9.2,-,N/A,Rain,Rain,320,2013-06-28 19:52:00
4:12 PM,66.2,64.4,94,29.56,7.0,NNW,8.1,-,N/A,Rain,Rain,330,2013-06-28 20:12:00
4:32 PM,68.0,66.2,94,29.55,10.0,Calm,Calm,-,N/A,,Overcast,0,2013-06-28 20:32:00
4:52 PM,68.0,66.2,94,29.55,10.0,Calm,Calm,-,N/A,,Mostly Cloudy,0,2013-06-28 20:52:00
5:12 PM,69.8,68.0,94,29.54,10.0,Calm,Calm,-,N/A,,Scattered Clouds,0,2013-06-28 21:12:00
5:32 PM,69.8,68.0,94,29.55,10.0,North,6.9,-,N/A,,Scattered Clouds,360,2013-06-28 21:32:00
5:52 PM,69.8,66.2,88,29.55,10.0,North,9.2,-,N/A,,Scattered Clouds,10,2013-06-28 21:52:00
6:12 PM,71.6,68.0,88,29.56,10.0,NNE,8.1,-,N/A,,Scattered Clouds,30,2013-06-28 22:12:00
6:32 PM,71.6,68.0,88,29.56,10.0,NNE,8.1,-,N/A,,Mostly Cloudy,20,2013-06-28 22:32:00
6:52 PM,71.6,68.0,88,29.57,10.0,North,9.2,-,N/A,,Mostly Cloudy,10,2013-06-28 22:52:00
7:12 PM,69.8,66.2,88,29.57,10.0,NNE,3.5,-,N/A,,Mostly Cloudy,20,2013-06-28 23:12:00
7:32 PM,69.8,66.2,88,29.58,10.0,Calm,Calm,-,N/A,Rain,Light Rain,0,2013-06-28 23:32:00
7:53 PM,68.0,66.2,94,29.59,10.0,North,3.5,-,N/A,,Overcast,360,2013-06-28 23:53:00
8:13 PM,68.0,66.2,94,29.59,10.0,North,5.8,-,N/A,,Overcast,350,2013-06-29 00:13:00
8:33 PM,68.0,66.2,94,29.59,5.0,North,5.8,-,N/A,Rain,Rain,10,2013-06-29 00:33:00
8:53 PM,68.0,66.2,94,29.59,10.0,NNE,9.2,-,N/A,,Overcast,20,2013-06-29 00:53:00
9:13 PM,66.2,66.2,100,29.59,10.0,NNE,6.9,-,N/A,,Overcast,20,2013-06-29 01:13:00
9:33 PM,66.2,66.2,100,29.59,10.0,NNE,8.1,-,N/A,,Overcast,30,2013-06-29 01:33:00
9:53 PM,64.4,64.4,100,29.59,10.0,NNE,4.6,-,N/A,,Overcast,30,2013-06-29 01:53:00
10:13 PM,66.2,66.2,100,29.59,10.0,NE,5.8,-,N/A,,Overcast,40,2013-06-29 02:13:00
10:33 PM,66.2,66.2,100,29.59,10.0,NE,4.6,-,N/A,,Overcast,40,2013-06-29 02:33:00
10:54 PM,64.4,64.4,100,29.59,10.0,NE,5.8,-,N/A,,Overcast,40,2013-06-29 02:54:00
11:14 PM,64.4,64.4,100,29.59,10.0,NNE,4.6,-,N/A,,Mostly Cloudy,30,2013-06-29 03:14:00
11:34 PM,64.4,64.4,100,29.59,10.0,NNE,3.5,-,N/A,,Scattered Clouds,20,2013-06-29 03:34:00
11:54 PM,64.4,64.4,100,29.59,10.0,Calm,Calm,-,N/A,,Scattered Clouds,0,2013-06-29 03:54:00